Regional Weather Roundup
Issued by NWS

Home | Current Version | Previous Version | Text Only | Print | Product List | Glossary On
Versions: 1 2 3 4 5 6 7 8 9 10 11 12 13 14 15 16 17 18 19 20 21 22 23 24 25 26 27 28 29 30 31 32 33 34 35 36 37 38 39 40 41 42 43 44 45 46 47 48 49 50
000
ASUS44 KJAN 280803
RWRMS

MISSISSIPPI HOURLY WEATHER ROUNDUP
NATIONAL WEATHER SERVICE JACKSON MS
200 AM CST SUN DEC 28 2014

NOTE: "FAIR: INDICATES FEW OR NO CLOUDS BELOW 12,000 FEET WITH NO
SIGNIFICANT WEATHER AND/OR OBSTRUCTIONS TO VISIBILITY.

MSZ001>002-007>008-010>013-018>021-025>028-034>036-280900-
NORTHWEST MISSISSIPPI

CITY           SKY/WX    TMP DP  RH WIND       PRES   REMARKS
CLARKSDALE     CLOUDY    45  45 100 NW13      30.14R
CLEVELAND      DRIZZLE   45  45 100 N18G29    30.11R
GREENWOOD      CLOUDY    51  49  92 N10       30.07S
GREENVILLE     LGT RAIN  48  46  93 N17G24    30.10S
GRENADA        CLOUDY    50  50 100 N9        30.07S FOG
OLIVE BRANCH   CLOUDY    41 N/A N/A N23       30.12R
OXFORD         CLOUDY    46  46 100 NW9       30.10R FOG
TUNICA         CLOUDY    43  43 100 N16       30.14R FOG
$$

MSZ003>006-009-014>017-022>024-029>033-037>039-280900-
NORTHEAST MISSISSIPPI

CITY           SKY/WX    TMP DP  RH WIND       PRES   REMARKS
COLUMBUS AFB   CLOUDY    54  54 100 N2        30.03S
CORINTH        DRIZZLE   52  50  93 CALM      30.07R
GOLDN TRIANGLE CLOUDY    54  54 100 CALM      30.01F
STARKVILLE     FOG       52  52 100 CALM      30.02S VSB 3/4
TUPELO         CLOUDY    54  52  93 N6        30.06R FOG
$$

MSZ040-058-280900-
CENTRAL MISSISSIPPI

CITY           SKY/WX    TMP DP  RH WIND       PRES   REMARKS
JACKSON INTL   RAIN      61  60  97 W3        30.04R FOG
JACKSON HAWKNS RAIN      57  56  96 NW8       30.04R FOG
MERIDIAN KEY   HVY RAIN  57  57 100 S5        30.04S FOG
MERIDIAN NAS   LGT RAIN  57  56  96 SE7       30.04F
RAYMOND        HVY RAIN  55  50  82 NW10      30.05R
VICKSBURG      LGT RAIN  50  49  96 N8        30.10R
$$

MSZ059>079-280900-
SOUTH MISSISSIPPI

CITY           SKY/WX    TMP DP  RH WIND       PRES   REMARKS
HATTIESBURG    CLOUDY    68  67  96 S6        30.04R
MCCOMB         LGT RAIN  68  66  93 W7        30.04R
NATCHEZ        CLOUDY    54  50  87 NW10      30.09S
PINE BELT      CLOUDY    66  64  94 S7        30.04R
$$

MSZ080>082-280900-
COASTAL MISSISSIPPI

CITY           SKY/WX    TMP DP  RH WIND       PRES   REMARKS
BILOXI         FOG       64  64 100 S6        30.05S VSB 1/4
PASCAGOULA     CLOUDY    66  66 100 CALM      30.06S FOG
GULFPORT       FOG       65  65 100 S6        30.05S VSB 3/4
$$



USA.gov is the U.S. government's official web portal to all federal, state and local government web resources and services.